GW5240 Weather Reports


time (UTC)temp
F
wind
direction
speed
knots
gust
knots
rain 1hr
in
rain 24hr
in
rain mn
in
humidity
%
barometer
mb
20260903223314 88 168 1.7 1.7 0.00 0.01 0.01 59 1008.0
20260903222809 88 159 3.5 6.1 0.00 0.01 0.01 58 1008.1
20260903222308 89 198 1.7 2.6 0.00 0.01 0.01 58 1008.3
20260903221803 89 233 1.7 2.6 0.00 0.01 0.01 57 1008.2
20260903221301 88 192 3.5 4.3 0.00 0.01 0.01 58 1008.2
20260903220800 87 165 1.7 2.6 0.00 0.01 0.01 59 1008.2
20260903220254 89 79 3.5 4.3 0.00 0.01 0.01 58 1008.1
20260903215747 88 158 1.7 2.6 0.00 0.01 0.01 58 1008.4
20260903215244 88 197 3.5 4.3 0.00 0.01 0.01 58 1008.3
20260903214741 88 147 4.3 4.3 0.00 0.01 0.01 58 1008.2
20260903214239 88 174 2.6 2.6 0.00 0.01 0.01 59 1008.3
20260903213732 88 189 3.5 4.3 0.00 0.01 0.01 58 1008.2
20260903213228 88 181 3.5 4.3 0.00 0.01 0.01 58 1008.5
20260903212724 88 191 3.5 4.3 0.00 0.01 0.01 60 1008.6
20260903212220 87 182 1.7 1.7 0.00 0.01 0.01 60 1008.7
20260903211718 87 167 0.9 1.7 0.00 0.01 0.01 62 1008.6
20260903211215 85 164 1.7 2.6 0.07 0.01 0.01 65 1008.6
20260903210711 85 174 0.0 1.7 0.07 0.01 0.01 67 1008.4
20260903210207 84 159 2.6 6.1 0.00 0.00 0.00 65 1008.3
20260903205701 86 180 5.2 8.7 0.00 0.00 0.00 62 1008.2
20260903205200 86 170 2.6 6.1 0.00 0.00 0.00 59 1008.8
20260903204656 86 179 1.7 1.7 0.00 0.00 0.00 59 1009.2
20260903204152 87 180 3.5 6.1 0.00 0.00 0.00 58 1008.9
20260903203647 87 184 1.7 2.6 0.00 0.00 0.00 57 1008.9
20260903203142 88 179 1.7 1.7 0.00 0.00 0.00 56 1008.8
20260903202637 90 187 0.9 1.7 0.00 0.00 0.00 53 1009.0
20260903202133 90 69 3.5 6.1 0.00 0.00 0.00 53 1009.0
20260903201632 90 181 0.9 1.7 0.00 0.00 0.00 54 1008.8
20260903201131 90 165 1.7 2.6 0.00 0.00 0.00 54 1009.0
20260903200626 90 181 0.9 1.7 0.00 0.00 0.00 55 1009.0
20260903200121 90 195 1.7 1.7 0.00 0.00 0.00 55 1009.3
20260903195617 90 154 1.7 1.7 0.00 0.00 0.00 60 1008.9
20260903195113 89 82 6.1 10.4 0.00 0.00 0.00 61 1009.0
20260903194609 90 221 1.7 2.6 0.00 0.00 0.00 61 1009.2
20260903194108 90 207 2.6 2.6 0.00 0.00 0.00 62 1009.6
20260903193605 89 193 1.7 1.7 0.00 0.00 0.00 64 1009.5
20260903193100 87 69 2.6 2.6 0.00 0.00 0.00 65 1009.6
20260903192557 86 182 1.7 2.6 0.00 0.00 0.00 68 1009.6
20260903192057 85 109 0.9 1.7 0.00 0.00 0.00 71 1009.6
20260903191553 86 188 0.9 1.7 0.00 0.00 0.00 69 1009.3
20260903191048 86 188 0.9 1.7 0.00 0.00 0.00 69 1009.2
20260903190547 84 136 1.7 1.7 0.00 0.00 0.00 72 1009.5
20260903190047 84 83 2.6 2.6 0.00 0.00 0.00 73 1010.0
20260903185542 82 155 0.0 0.0 0.00 0.00 0.00 77 1010.1
20260903185038 80 120 1.7 2.6 0.00 0.00 0.00 79 1010.2
20260903184534 79 168 0.9 1.7 0.00 0.00 0.00 79 1010.2
20260903184029 80 149 0.0 0.0 0.00 0.00 0.00 79 1010.1
20260903183528 80 163 0.0 0.0 0.00 0.00 0.00 78 1010.3
20260903183023 80 151 0.0 1.7 0.00 0.00 0.00 77 1010.1
20260903182522 80 150 0.0 0.0 0.00 0.00 0.00 77 1010.2
20260903182019 80 148 0.0 0.0 0.00 0.00 0.00 76 1010.3
20260903181517 80 163 0.9 1.7 0.00 0.00 0.00 74 1010.3
20260903181017 80 168 0.0 0.0 0.00 0.00 0.00 74 1010.2
20260903180513 80 160 0.0 0.0 0.00 0.00 0.00 73 1010.1
20260903180012 80 206 0.0 1.7 0.00 0.00 0.00 73 1010.2
20260903175511 80 179 0.0 0.0 0.00 0.00 0.00 72 1010.4
20260903175010 80 166 0.0 1.7 0.00 0.00 0.00 73 1010.1
20260903174505 81 181 0.0 1.7 0.00 0.00 0.00 72 1010.2
20260903174000 81 166 0.0 0.0 0.00 0.00 0.00 70 1010.1
20260903173455 82 164 0.0 1.7 0.00 0.00 0.00 68 1010.2
20260903172951 83 81 1.7 2.6 0.00 0.00 0.00 67 1010.2
20260903172446 84 148 2.6 2.6 0.00 0.00 0.00 65 1010.5
20260903171941 85 177 1.7 1.7 0.00 0.00 0.00 65 1010.4
20260903171436 85 135 0.9 1.7 0.00 0.00 0.00 64 1010.5
20260903170936 84 214 2.6 4.3 0.00 0.00 0.00 67 1010.6
20260903170431 83 163 1.7 2.6 0.00 0.00 0.00 68 1010.8
20260903165930 82 156 0.0 1.7 0.00 0.00 0.00 69 1010.9
20260903165424 82 171 0.0 0.0 0.00 0.00 0.00 68 1010.9
20260903164918 83 180 1.7 1.7 0.00 0.00 0.00 66 1010.9
20260903164414 85 151 3.5 6.1 0.00 0.00 0.00 63 1010.8
20260903163913 86 175 0.0 0.0 0.00 0.00 0.00 63 1010.8
20260903163409 85 168 1.7 1.7 0.00 0.00 0.00 61 1010.8
20260903162905 85 158 3.5 6.1 0.00 0.00 0.00 62 1010.9
20260903162402 82 178 0.0 0.0 0.00 0.00 0.00 68 1010.8
20260903161857 80 148 1.7 2.6 0.00 0.00 0.00 68 1010.9
20260903161352 80 176 0.9 1.7 0.00 0.00 0.00 69 1010.7
20260903160848 81 104 0.9 1.7 0.00 0.00 0.00 68 1010.7
20260903160347 82 145 0.0 0.0 0.00 0.00 0.00 66 1010.8
20260903155845 83 164 0.9 1.7 0.00 0.00 0.00 64 1010.9
20260903155341 84 129 0.0 0.0 0.00 0.00 0.00 64 1010.7
20260903154837 84 160 0.0 1.7 0.00 0.00 0.00 64 1010.7
20260903154333 84 166 0.0 0.0 0.00 0.00 0.00 64 1010.6
20260903153833 82 119 1.7 2.6 0.00 0.00 0.00 65 1010.7
20260903153329 81 182 1.7 2.6 0.00 0.00 0.00 68 1010.7
20260903152825 81 165 2.6 2.6 0.00 0.00 0.00 67 1010.9
20260903152320 82 174 0.0 1.7 0.00 0.00 0.00 68 1010.9
20260903151815 83 176 1.7 1.7 0.00 0.00 0.00 65 1011.0
20260903151311 83 157 1.7 1.7 0.00 0.00 0.00 66 1010.8
20260903150812 82 205 1.7 2.6 0.00 0.00 0.00 66 1010.5
20260903150311 82 186 1.7 1.7 0.00 0.00 0.00 67 1010.6
20260903145806 82 171 0.0 0.0 0.00 0.00 0.00 67 1010.6
20260903145305 81 138 0.9 1.7 0.00 0.00 0.00 68 1010.5
20260903144800 81 139 1.7 1.7 0.00 0.00 0.00 68 1010.6
20260903144256 80 157 1.7 1.7 0.00 0.00 0.00 70 1010.6
20260903143752 79 124 0.0 0.0 0.00 0.00 0.00 72 1010.7
20260903143248 78 161 0.0 0.0 0.00 0.00 0.00 73 1010.7
20260903142743 78 149 1.7 1.7 0.00 0.00 0.00 72 1010.8
20260903142239 78 136 0.0 1.7 0.00 0.00 0.00 74 1010.6
20260903141735 78 165 1.7 1.7 0.00 0.00 0.00 74 1010.7
20260903141230 77 190 1.7 1.7 0.00 0.00 0.00 75 1010.8
20260903140725 77 167 0.0 0.0 0.00 0.00 0.00 77 1010.8
20260903140220 76 194 0.9 1.7 0.00 0.00 0.00 77 1010.8
20260903135716 76 171 0.0 0.0 0.00 0.00 0.00 78 1010.7
20260903135212 76 183 0.0 1.7 0.00 0.00 0.00 78 1010.9
20260903134710 76 167 0.0 1.7 0.00 0.00 0.00 79 1010.9
20260903134206 75 166 0.0 0.0 0.00 0.00 0.00 81 1010.9
20260903133704 75 159 0.0 0.0 0.00 0.00 0.00 81 1011.0
20260903133200 75 167 0.0 0.0 0.00 0.00 0.00 82 1011.0
20260903132700 75 152 0.9 1.7 0.00 0.00 0.00 83 1011.2
20260903132200 75 174 0.0 1.7 0.00 0.00 0.00 83 1010.9
20260903131655 75 167 0.0 0.0 0.00 0.00 0.00 84 1010.8
20260903131155 75 162 0.0 0.0 0.00 0.00 0.00 84 1010.8
20260903130650 74 173 0.9 1.7 0.00 0.00 0.00 84 1010.7
20260903130149 74 142 1.7 1.7 0.00 0.00 0.00 85 1010.7
20260903125648 75 169 0.0 1.7 0.00 0.00 0.00 85 1010.9
20260903125143 75 160 0.0 0.0 0.00 0.00 0.00 85 1010.7
20260903124638 74 193 2.6 2.6 0.00 0.00 0.00 85 1010.6
20260903124137 74 161 0.0 0.0 0.00 0.00 0.00 84 1010.3
20260903123631 74 160 0.0 0.0 0.00 0.00 0.00 85 1010.1
20260903123131 74 148 0.0 0.0 0.00 0.00 0.00 85 1010.0
20260903122630 74 156 0.0 0.0 0.00 0.00 0.00 85 1010.2
20260903122130 74 149 0.0 0.0 0.00 0.00 0.00 85 1010.2
20260903121629 74 149 0.0 0.0 0.00 0.00 0.00 85 1010.2
20260903121125 74 169 0.0 0.0 0.00 0.00 0.00 85 1010.2
20260903120624 75 164 0.0 0.0 0.00 0.00 0.00 84 1010.4
20260903120119 75 175 0.0 0.0 0.00 0.00 0.00 85 1010.4
20260903115617 75 170 0.0 0.0 0.00 0.00 0.00 85 1010.6
20260903115112 74 154 0.9 1.7 0.00 0.00 0.00 87 1010.6
20260903114607 74 185 0.0 1.7 0.00 0.00 0.00 89 1010.8
20260903114103 73 173 0.0 0.0 0.00 0.00 0.00 90 1010.6
20260903113558 73 168 0.9 1.7 0.00 0.00 0.00 91 1010.8
20260903113054 73 161 0.0 0.0 0.00 0.00 0.00 91 1010.6
20260903112550 73 161 0.0 0.0 0.00 0.00 0.00 91 1010.7
20260903112050 73 170 0.0 0.0 0.00 0.00 0.00 91 1010.8
20260903111550 73 170 0.0 0.0 0.00 0.00 0.00 91 1010.6
20260903111046 73 170 0.0 0.0 0.00 0.00 0.00 91 1010.5
20260903110542 73 160 0.0 0.0 0.00 0.00 0.00 91 1010.7
20260903110041 73 163 0.0 0.0 0.00 0.00 0.00 91 1010.7
20260903105537 73 163 0.0 0.0 0.00 0.00 0.00 91 1010.7
20260903105031 73 157 0.0 0.0 0.00 0.00 0.00 91 1010.7
20260903104525 73 145 0.0 0.0 0.00 0.00 0.00 91 1010.8
20260903104021 73 166 0.0 0.0 0.00 0.00 0.00 91 1011.1
20260903103517 72 161 0.0 0.0 0.00 0.00 0.00 91 1010.8
20260903103013 72 161 0.0 0.0 0.00 0.00 0.00 91 1010.8
20260903102508 73 149 0.0 0.0 0.00 0.00 0.00 91 1010.7
20260903102007 73 156 0.0 0.0 0.00 0.00 0.00 91 1010.6
20260903101501 73 160 0.0 0.0 0.00 0.00 0.00 91 1010.5
20260903100957 73 155 0.0 0.0 0.00 0.00 0.00 91 1010.6
20260903100452 73 162 0.0 0.0 0.00 0.00 0.00 91 1010.8
20260903095949 73 150 0.0 0.0 0.00 0.00 0.00 91 1010.5
20260903095443 73 193 0.9 1.7 0.00 0.00 0.00 91 1010.6
20260903094939 72 158 0.0 0.0 0.00 0.00 0.00 91 1010.5
20260903094438 72 157 0.0 0.0 0.00 0.00 0.00 91 1010.7
20260903093935 72 164 0.0 0.0 0.00 0.00 0.00 91 1010.4
20260903093429 72 164 0.0 0.0 0.00 0.00 0.00 92 1010.4
20260903092925 72 164 0.0 0.0 0.00 0.00 0.00 91 1010.6
20260903092425 72 164 0.0 0.0 0.00 0.00 0.00 91 1010.6
20260903091924 72 164 0.0 0.0 0.00 0.00 0.00 91 1010.5
20260903091422 72 164 0.0 0.0 0.00 0.00 0.00 91 1010.6
20260903090918 72 156 0.0 0.0 0.00 0.00 0.00 91 1010.4
20260903090413 72 156 0.0 0.0 0.00 0.00 0.00 91 1010.3
20260903085912 72 156 0.0 0.0 0.00 0.00 0.00 91 1010.2
20260903085410 72 156 0.0 0.0 0.00 0.00 0.00 90 1010.2
20260903084910 72 156 0.0 0.0 0.00 0.00 0.00 90 1010.3
20260903084409 72 156 0.0 0.0 0.00 0.00 0.00 90 1010.4
20260903083904 72 156 0.0 0.0 0.00 0.00 0.00 90 1010.4
20260903083400 72 156 0.0 0.0 0.00 0.00 0.00 90 1010.5
20260903082854 73 156 0.0 0.0 0.00 0.00 0.00 90 1010.6
20260903082349 73 156 0.0 0.0 0.00 0.00 0.00 89 1010.6
20260903081844 73 156 0.0 0.0 0.00 0.00 0.00 89 1010.8
20260903081339 73 156 0.0 0.0 0.00 0.00 0.00 88 1010.5
20260903080836 73 152 0.0 0.0 0.00 0.00 0.00 88 1010.4
20260903080333 73 157 0.0 0.0 0.00 0.00 0.00 88 1010.6
20260903075832 73 157 0.0 0.0 0.00 0.00 0.00 88 1010.4
20260903075327 73 157 0.0 0.0 0.00 0.00 0.00 87 1010.7
20260903074827 74 158 0.0 0.0 0.00 0.00 0.00 87 1010.7
20260903074327 74 158 0.0 0.0 0.00 0.00 0.00 87 1010.7
20260903073822 74 158 0.0 0.0 0.00 0.00 0.00 87 1010.8
20260903073317 74 162 0.0 0.0 0.00 0.00 0.00 87 1010.9
20260903072814 74 151 0.0 0.0 0.00 0.00 0.00 86 1011.0
20260903072309 74 151 0.0 0.0 0.00 0.00 0.00 86 1010.9
20260903071806 74 151 0.0 0.0 0.00 0.00 0.00 86 1011.0
20260903071301 74 148 0.0 0.0 0.00 0.00 0.00 86 1011.0
20260903070755 74 151 0.0 0.0 0.00 0.00 0.00 86 1010.9
20260903070251 74 164 0.0 0.0 0.00 0.00 0.00 86 1011.0
20260903065746 74 161 0.0 0.0 0.00 0.00 0.00 86 1010.9
20260903065245 74 164 0.0 0.0 0.00 0.00 0.00 85 1010.9
20260903064744 74 164 0.0 0.0 0.00 0.00 0.00 85 1011.0
20260903064240 74 164 0.0 0.0 0.00 0.00 0.00 85 1011.0
20260903063736 74 164 0.0 0.0 0.00 0.00 0.00 85 1011.1
20260903063231 74 164 0.0 0.0 0.00 0.00 0.00 85 1011.0
20260903062727 75 164 0.0 0.0 0.00 0.00 0.00 84 1011.0
20260903062226 75 164 0.0 0.0 0.00 0.00 0.00 84 1011.2
20260903061723 75 164 0.0 0.0 0.00 0.00 0.00 83 1011.2
20260903061221 75 164 0.0 0.0 0.00 0.00 0.00 83 1011.2
20260903060717 75 154 0.0 0.0 0.00 0.00 0.00 83 1011.1
20260903060212 75 160 0.0 0.0 0.00 0.00 0.00 82 1011.1
20260903055709 75 163 0.0 0.0 0.00 0.00 0.00 82 1011.1
20260903055208 76 163 0.0 0.0 0.00 0.00 0.00 81 1011.2
20260903054703 76 162 0.0 0.0 0.00 0.00 0.00 81 1011.0
20260903054158 76 177 0.0 0.0 0.00 0.00 0.00 81 1011.2
20260903053654 76 177 0.0 0.0 0.00 0.00 0.00 81 1011.2
20260903053149 76 177 0.0 0.0 0.00 0.00 0.00 81 1011.2
20260903052645 76 161 0.0 0.0 0.00 0.00 0.00 80 1011.0
20260903052141 76 158 0.0 0.0 0.00 0.00 0.00 80 1010.9
20260903051635 76 150 0.0 0.0 0.00 0.00 0.00 80 1011.2
20260903051131 77 159 0.0 0.0 0.00 0.00 0.00 80 1011.0
20260903050626 77 155 0.0 0.0 0.00 0.00 0.00 79 1011.1
20260903050121 77 160 0.0 0.0 0.00 0.00 0.00 79 1011.1
20260903045620 77 156 0.0 0.0 0.00 0.04 0.04 79 1011.4
20260903045117 77 158 0.0 0.0 0.00 0.04 0.04 78 1011.4
20260903044612 77 163 0.0 0.0 0.00 0.04 0.04 78 1011.4
20260903044108 77 155 0.0 0.0 0.00 0.04 0.04 78 1011.2
20260903043604 77 163 0.0 0.0 0.00 0.04 0.04 78 1011.3
20260903043103 77 165 0.0 0.0 0.00 0.04 0.04 78 1011.4
20260903042557 77 160 0.0 0.0 0.00 0.04 0.04 77 1011.5
20260903042053 77 161 0.0 0.0 0.00 0.04 0.04 77 1011.7
20260903041549 77 152 0.0 0.0 0.00 0.04 0.04 77 1011.5
20260903041045 77 153 0.0 0.0 0.00 0.04 0.04 76 1011.4
20260903040543 78 173 0.0 0.0 0.00 0.04 0.04 76 1011.4
20260903040040 78 155 0.0 0.0 0.00 0.04 0.04 75 1011.4
20260903035541 78 148 0.0 0.0 0.00 0.04 0.04 75 1011.4
20260903035037 78 164 0.0 0.0 0.00 0.04 0.04 74 1011.5
20260903034537 78 151 0.0 0.0 0.00 0.04 0.04 74 1011.7
20260903034032 78 151 0.0 0.0 0.00 0.04 0.04 75 1011.4
20260903033527 77 129 0.0 0.0 0.00 0.04 0.04 75 1011.6
20260903033022 77 152 0.0 0.0 0.00 0.04 0.04 75 1011.6
20260903032517 77 140 0.0 0.0 0.00 0.04 0.04 76 1011.6
20260903032013 77 164 0.0 0.0 0.00 0.04 0.04 76 1011.7
20260903031512 78 157 0.0 0.0 0.00 0.04 0.04 75 1011.6
20260903031008 78 164 0.0 0.0 0.00 0.04 0.04 74 1011.8
20260903030503 78 161 0.0 0.0 0.00 0.04 0.04 74 1011.7
20260903025959 78 151 0.0 0.0 0.00 0.04 0.04 74 1011.5
20260903025449 77 156 0.0 0.0 0.00 0.04 0.04 74 1011.6
20260903024944 77 164 0.0 0.0 0.00 0.04 0.04 74 1011.5
20260903024443 78 164 0.0 0.0 0.00 0.04 0.04 74 1011.6
20260903023938 78 164 0.0 0.0 0.00 0.04 0.04 73 1011.4
20260903023434 78 160 0.0 0.0 0.00 0.04 0.04 73 1011.6
20260903022929 78 160 0.0 0.0 0.00 0.04 0.04 73 1011.4
20260903022428 78 157 0.0 0.0 0.00 0.04 0.04 73 1011.6
20260903021927 78 164 0.0 0.0 0.00 0.04 0.04 74 1011.4
20260903021422 78 162 0.0 0.0 0.00 0.04 0.04 76 1011.3
20260903020917 78 162 0.0 0.0 0.00 0.04 0.04 76 1011.5
20260903020413 77 158 0.0 0.0 0.00 0.04 0.04 76 1011.5
20260903015907 77 161 0.0 0.0 0.00 0.04 0.04 76 1011.4
20260903015403 78 161 0.0 0.0 0.00 0.04 0.04 75 1011.5
20260903014857 78 161 0.0 0.0 0.00 0.04 0.04 75 1011.3
20260903014351 78 161 0.0 0.0 0.00 0.04 0.04 75 1011.2
20260903013846 78 161 0.0 0.0 0.00 0.04 0.04 74 1011.2
20260903013345 79 161 0.0 0.0 0.00 0.04 0.04 73 1011.2
20260903012845 79 161 0.0 0.0 0.00 0.04 0.04 72 1011.0
20260903012339 79 161 0.0 0.0 0.00 0.04 0.04 72 1011.4
20260903011832 80 163 0.0 0.0 0.00 0.04 0.04 72 1011.1
20260903011332 80 163 0.0 0.0 0.00 0.04 0.04 71 1010.9
20260903010822 80 162 0.0 0.0 0.00 0.04 0.04 70 1011.0
20260903010318 80 163 0.0 0.0 0.00 0.04 0.04 70 1010.9
20260903005815 81 163 0.0 0.0 0.00 0.04 0.04 69 1010.8
20260903005310 81 163 0.0 0.0 0.00 0.04 0.04 68 1010.8
20260903004801 82 163 0.0 0.0 0.00 0.04 0.04 67 1011.0
20260903004256 82 163 0.0 0.0 0.00 0.04 0.04 66 1010.8
20260903003752 82 163 0.0 0.0 0.00 0.04 0.04 66 1010.8
20260903003252 83 163 0.0 0.0 0.00 0.04 0.04 65 1010.8
20260903002746 83 163 0.0 0.0 0.00 0.04 0.04 64 1011.0
20260903002240 84 167 0.0 0.0 0.00 0.04 0.04 63 1011.0
20260903001737 84 168 0.0 0.0 0.00 0.04 0.04 63 1010.7
20260903001236 84 167 0.0 0.0 0.00 0.04 0.04 62 1011.0
20260903000731 85 166 0.0 0.0 0.00 0.04 0.04 61 1010.9
20260903000233 85 152 0.0 0.0 0.00 0.04 0.04 61 1010.8
20260902235730 85 166 0.0 0.0 0.00 0.04 0.04 60 1010.8
20260902235225 85 178 0.9 1.7 0.00 0.04 0.04 60 1010.8
20260902234724 86 176 0.0 1.7 0.00 0.04 0.04 60 1010.7
20260902234223 86 169 0.0 0.0 0.00 0.04 0.04 59 1010.9
20260902233717 86 139 0.0 1.7 0.00 0.04 0.04 60 1010.9
20260902233212 86 173 0.0 0.0 0.00 0.04 0.04 58 1010.8
20260902232711 86 164 1.7 1.7 0.00 0.04 0.04 58 1010.9
20260902232210 87 159 0.0 0.0 0.00 0.04 0.04 57 1010.9
20260902231705 87 164 0.0 0.0 0.00 0.04 0.04 57 1010.9
20260902231200 87 167 1.7 1.7 0.00 0.04 0.04 56 1011.0
20260902230655 87 162 0.0 0.0 0.00 0.04 0.04 56 1010.9
20260902230154 87 165 1.7 2.6 0.00 0.04 0.04 55 1010.8
20260902225649 88 176 0.9 1.7 0.00 0.04 0.04 54 1011.1
20260902225143 88 153 1.7 1.7 0.00 0.04 0.04 54 1010.9
20260902224642 88 76 0.9 1.7 0.00 0.04 0.04 54 1011.1
20260902224137 88 174 0.0 1.7 0.00 0.04 0.04 54 1010.9
20260902223633 89 234 1.7 1.7 0.00 0.04 0.04 52 1010.7